Hourly Data Report for June 06, 2003

All times are specified in Local Standard Time (LST). Add 1 hour to adjust for Daylight Saving Time where and when it is observed.

TORONTO CITY
ONTARIO

43°40'00.000" N
79°24'00.000" W
112.50 m
6158355
71508
XTO

Download Data

Hourly Data (June 2003)
Hourly Data Report for June 6, 2003
TIME Temp Definition
°C
Dew Point Definition
°C
Rel Hum Definition
%
Wind Dir Definition
10's deg

Wind Spd Definition
km/h
Visibility Definition
km
Stn Press Definition
kPa
Hmdx Definition


Wind Chill Definition


Weather Definition


00:00 11.8 11.3 97 LegendMM LegendMM LegendMM 99.80     LegendNANA
01:00 11.4 11.1 98 LegendMM LegendMM LegendMM 99.82     LegendNANA
02:00 11.3 11.0 98 LegendMM LegendMM LegendMM 99.85     LegendNANA
03:00 11.1 11.0 99 LegendMM LegendMM LegendMM 99.92     LegendNANA
04:00 10.7 10.6 99 LegendMM LegendMM LegendMM 99.96     LegendNANA
05:00 10.3 10.2 99 LegendMM LegendMM LegendMM 100.04     LegendNANA
06:00 11.5 11.4 99 LegendMM LegendMM LegendMM 100.06     LegendNANA
07:00 13.0 11.9 93 LegendMM LegendMM LegendMM 100.10     LegendNANA
08:00 16.5 12.3 76 LegendMM LegendMM LegendMM 100.13     LegendNANA
09:00 16.2 11.4 73 LegendMM LegendMM LegendMM 100.15     LegendNANA
10:00 17.0 12.3 74 LegendMM LegendMM LegendMM 100.16     LegendNANA
11:00 19.0 12.7 67 LegendMM LegendMM LegendMM 100.16     LegendNANA
12:00 20.4 12.6 61 LegendMM LegendMM LegendMM 100.14     LegendNANA
13:00 21.5 13.4 60 LegendMM LegendMM LegendMM 100.12 25   LegendNANA
14:00 21.0 14.4 66 LegendMM LegendMM LegendMM 100.08 25   LegendNANA
15:00 21.9 14.3 62 LegendMM LegendMM LegendMM 100.05 25   LegendNANA
16:00 22.0 14.6 63 LegendMM LegendMM LegendMM 100.01 26   LegendNANA
17:00 21.7 14.1 62 LegendMM LegendMM LegendMM 99.98 25   LegendNANA
18:00 20.2 12.2 60 LegendMM LegendMM LegendMM 99.93     LegendNANA
19:00 18.8 11.9 64 LegendMM LegendMM LegendMM 99.98     LegendNANA
20:00 17.6 10.7 64 LegendMM LegendMM LegendMM 100.01     LegendNANA
21:00 17.2 11.7 70 LegendMM LegendMM LegendMM 100.04     LegendNANA
22:00 17.3 12.0 71 LegendMM LegendMM LegendMM 100.01     LegendNANA
23:00 17.2 12.3 73 LegendMM LegendMM LegendMM 99.99     LegendNANA

Notes on Data Quality.

Legend

  • E = Estimated
  • M = Missing
  • NA = Not Available
Date modified: